Location: Beadle
(51.4667°N, 109.0000°W)
Time: 04:23:37
(UTC+00:00)

DIWATA 2B (PO-101) - Pass Details

Date: 02 July 2022
Orbit: 583 x 599 km, 98.0° (Epoch: 13 August)

Event Time Altitude Azimuth Distance (km) Brightness Sun altitude
Exits shadow 09:51:03 11° 206° (SSW) 1,887 ? -8.5°
Maximum altitude 09:54:33 28° 265° (W) 1,133 ? -8.2°
Drops below altitude 10° 09:58:14 10° 326° (NW) 1,951 ? -7.8°
Sets 10:00:40 0° 338° (NNW) 2,859 ? -7.6°
